Location: Bidart
(43.4376°N, 1.5913°W)
Time: 08:22:47
(UTC+00:00)

USA 229 DEB - Pass Details

Date: 22 April 2026
Orbit: 844 x 1364 km, 63.4° (Epoch: 10 January)

Event Time Altitude Azimuth Distance (km) Brightness Sun altitude
Rises 21:17:22 0° 319° (NW) 3,837 8.1 -22.3°
Reaches altitude 10° 21:20:53 10° 337° (NNW) 2,980 7.0 -22.8°
Maximum altitude 21:25:46 19° 21° (NNE) 2,498 5.9 -23.4°
Drops below altitude 10° 21:31:01 10° 64° (ENE) 3,233 6.1 -24.0°
Enters shadow 21:33:11 - 74° (ENE) 3,775 6.3 -24.3°
